DECAYED

FENGYUN 1C DEB, 31366 (Decayed)

Orbit data source: Space-Track

FENGYUN 1C DEB, 31366 was space debris in SSO originally from a launch on Mon, 10 May 1999 UTC launched from the Taiyaun Space Center, China (TSC). Fengyun 1C debris stems from the Chinese weather satellite Fengyun-1C, which was intentionally destroyed by a Chinese anti-satellite missile in 2007. This event dramatically increased the amount of space debris, with thousands of trackable fragments posing hazards to satellites and human spaceflight. The Fengyun 1C debris cloud has become a focal point in discussions about space sustainability and the need for international regulations to prevent the creation of new debris.

Not visible in the next 10 days
Identifier
31366, 1999-025BRW
Orbit
Decayed
Country
Flag of CNCN / PRC
Related business
Manufacturer
Unknown
Mission
Decayed spacecraft
Bus & Motor
Unknown
Mass
Unknown
Launch date (UTC)
1999-05-10 (27 years ago)
Launch vehicle
Unknown
Launch site
Taiyaun Space Center, China (TSC)
Object type
Payload
Rocket body
Debris
Shape & HBR
Unknown shape, 0.1 m
Radar Cross Section
Small (<0.1 m²)

Expand to show TLE details & history
Last TLE update: 2 years ago

TLE from 2 years ago
0 FENGYUN 1C DEB
1 31366U 99025BRW 25003.99660725  .07682742  00000-0  34229-1 0  9995
2 31366  98.8133 202.5519 0016165 357.4728   2.6451 15.79739596923375
Epoch: 2025-01-03T23:55Z
TLE epoch observation values (Epoch: 2025-01-03T23:55:06.866Z)
Latitude
0.00004°
Longitude
99.92012°
Altitude
323.467 km
Speed
7.72 km/s
True Right ascension
13h 30m 12s
True Declination
0° 00' 00"
Sunlit
Object was in daylight at epoch
Visualization orbit readout
Latitude
Unknown
Longitude
Unknown
Altitude
Unknown
Speed
Unknown
Apparent Right ascension
Unknown
Apparent Declination
Unknown
Sunlit
N/A
Visualization observer readout
Local Sidereal Time
22:40:50
Azimuth
Unknown
Elevation
Unknown
Doppler factor
Unknown
Orbital elements
Apogee altitude
338.973 km
Perigee altitude
317.291 km
Semi-major axis
6,706.269 km
Eccentricity
0.00162
Inclination
98.8133°
RAAN
202.5519°
Arg. of periapsis
357.4728°
True anomaly
2.65367°
Mean anomaly
2.6451°
Eccentric anomaly
2.64938°
Mean motion
3.95204 °/min
Orbital period
91.09 mins
BSTAR
0.034229
Loading maneuver chart data...
Computing Atmospheric mass density...

Documentation

Showing up to 5 results
|